HST 1 20580U 90037B 25352.01685452 .00005621 00000+0 19130-3 0 9992 2 20580 28.4674 236.5696 0001951 306.2372 53.8043 15.28122531760808 POLAR 1 23802U 96013A 25352.80568198 .00000192 00000+0 00000+0 0 9996 2 23802 79.6373 229.0871 6290371 215.1832 79.5758 1.29846054142514 SWAS 1 25560U 98071A 25353.36425441 .00003261 00000+0 21808-3 0 9993 2 25560 69.8972 330.7363 0006225 208.2605 151.8222 15.08004269470146 CXO 1 25867U 99040B 25354.55178789 .00000629 00000+0 00000+0 0 9994 2 25867 53.1580 122.2771 8124204 310.8135 0.2560 0.37797284 16643 XMM-NEWTON 1 25989U 99066A 25352.84950202 .00000081 00000+0 00000+0 0 9997 2 25989 65.4033 285.3699 4740231 68.0474 0.2178 0.50133546 22108 TERRA 1 25994U 99068A 25353.72839479 .00000336 00000+0 77750-4 0 9999 2 25994 97.9739 45.1561 0003550 80.7170 23.1037 14.60909243383405 CLUSTER II-FM7 (SAMBA) 1 26410U 00041A 25354.59902070 .00003830 00000+0 00000+0 0 9991 2 26410 147.7214 25.8632 8768954 241.6495 359.9177 0.44843706 19518 CLUSTER II-FM8 (TANGO) 1 26464U 00045B 25355.52316153 .00003936 00000+0 00000+0 0 9996 2 26464 148.0433 26.6344 8777294 242.2748 359.8882 0.44424386 19519 ODIN 1 26702U 01007A 25353.54462579 .00022335 00000+0 37615-3 0 9994 2 26702 97.4204 21.6856 0005289 92.0819 268.1039 15.51703962361385 TIMED 1 26998U 01055B 25353.40419396 .00001044 00000+0 99822-4 0 9991 2 26998 74.0675 236.8645 0000727 212.2655 147.8485 14.94710612303950 CORIOLIS 1 27640U 03001A 25353.78953365 .00000103 00000+0 68931-4 0 9991 2 27640 98.7139 358.4134 0014264 14.0061 346.1508 14.19874914188760 SORCE 1 27651U 03004A 25353.68442847 .00002548 00000+0 19996-3 0 9994 2 27651 39.9892 204.8665 0017070 205.2875 154.7084 15.02334276244886 MOST 1 27843U 03031D 25353.48567293 .00000066 00000+0 50170-4 0 9991 2 27843 98.7064 358.7115 0010747 55.1326 305.0860 14.21272176165187 SCISAT 1 1 27858U 03036A 25353.78338777 .00000493 00000+0 68120-4 0 9996 2 27858 73.9285 167.7235 0008586 272.0566 87.9627 14.81129014204884 SWIFT 1 28485U 04047A 25353.68624854 .00028528 00000+0 45827-3 0 9996 2 28485 20.5532 112.3087 0004223 15.4681 344.5891 15.51016102158790 HINODE (SOLAR-B) 1 29479U 06041A 25353.64061406 .00000489 00000+0 93031-4 0 9997 2 29479 98.0643 7.3845 0018485 134.8678 225.4032 14.68312851 28527 SHIJIAN-6 02A (SJ-6 02A) 1 29505U 06046A 25353.86170648 .00003209 00000+0 17864-3 0 9997 2 29505 97.6611 28.6502 0004434 54.6494 305.5152 15.14373802 45108 SHIJIAN-6 02B (SJ-6 02B) 1 29506U 06046B 25353.88974271 .00001671 00000+0 13702-3 0 9992 2 29506 97.6888 19.3958 0013371 314.3213 45.6913 15.00561361 43842 FGRST (GLAST) 1 33053U 08029A 25353.42166719 .00003269 00000+0 12262-3 0 9992 2 33053 25.5839 11.5684 0008345 10.1217 349.9488 15.22643524968399 SDO 1 36395U 10005A 25352.26020594 -.00000079 00000+0 00000+0 0 9992 2 36395 34.2723 89.1032 0001068 154.7257 194.9364 1.00270082 58243 CRYOSAT 2 1 36508U 10013A 25353.82060543 .00000170 00000+0 41507-4 0 9991 2 36508 92.0257 233.8840 0002463 95.5507 264.5981 14.51898912832054 X-SAT 1 37389U 11015C 25353.91675947 .00000272 00000+0 13304-3 0 9998 2 37389 98.3309 334.6942 0014561 145.1361 215.0776 14.25132737762146 GCOM-W1 (SHIZUKU) 1 38337U 12025A 25353.47256733 .00000437 00000+0 10691-3 0 9992 2 38337 98.2224 291.5930 0001334 67.8179 50.1000 14.57134554722861 NUSTAR 1 38358U 12031A 25353.91668980 .00003116 00000+0 14978-3 0 9991 2 38358 6.0269 296.7205 0009074 319.7521 356.3968 15.06485354 1306 NEOSSAT 1 39089U 13009D 25353.76189992 .00000136 00000+0 61837-4 0 9999 2 39089 98.4074 173.1176 0012024 64.0733 296.1690 14.35733986670994 BRITE-AUSTRIA 1 39091U 13009F 25353.77953153 .00000151 00000+0 66128-4 0 9996 2 39091 98.3887 172.7185 0011184 59.3098 300.9189 14.36439613671292 IRIS 1 39197U 13033A 25353.47003091 .00001356 00000+0 16354-3 0 9997 2 39197 97.9392 188.2374 0024420 184.0322 176.0699 14.85304941673693 HISAKI (SPRINT-A) 1 39253U 13049A 25353.57161605 .00000104 00000+0 54902-4 0 9996 2 39253 29.7210 53.1696 0136956 0.7068 359.3681 13.55522158607034 CASSIOPE 1 39265U 13055A 25353.78560274 .00032558 -30566-6 43147-3 0 9998 2 39265 80.9207 282.5250 0339019 302.0241 54.8458 15.12059979640433 STSAT-3 1 39422U 13066G 25353.85674728 .00002408 00000+0 19082-3 0 9997 2 39422 97.6017 322.0763 0012898 289.6594 70.3238 15.01432680657287 SWARM B 1 39451U 13067A 25351.71023028 .00002957 00000+0 11017-3 0 9993 2 39451 87.7441 37.3525 0003127 82.9666 277.1938 15.27053080655532 SWARM A 1 39452U 13067B 25353.74279102 .00009015 00000+0 18017-3 0 9994 2 39452 87.3369 122.6846 0002260 93.3409 266.8108 15.46630673678472 SWARM C 1 39453U 13067C 25353.67800116 .00008958 00000+0 17903-3 0 9990 2 39453 87.3367 121.2934 0002259 93.3802 266.7715 15.46628108678427 BRITE-CA1 (TORONTO) 1 40020U 14033L 25353.64073646 .00000933 00000+0 14847-3 0 9992 2 40020 97.9498 121.2222 0080224 131.1857 229.6305 14.72229503615798 OCO 2 1 40059U 14035A 25353.79025780 .00000363 00000+0 90698-4 0 9994 2 40059 98.2225 292.6511 0001335 97.1578 262.9773 14.57055089609929 BRITE-PL2 (HEWELIUSZ) 1 40119U 14049B 25353.83475726 .00001640 00000+0 16046-3 0 9993 2 40119 97.8998 99.7353 0013936 349.8086 10.2848 14.93684410614669 MMS 1 1 40482U 15011A 25353.91668980 -.00000598 00000+0 00000+0 0 9992 2 40482 69.3367 351.4445 8496917 163.4135 13.5763 0.28413447 1309 MMS 2 1 40483U 15011B 25353.91668980 -.00000598 00000+0 00000+0 0 9993 2 40483 69.3333 351.4359 8498182 163.4292 13.5461 0.28416857 1300 MMS 3 1 40484U 15011C 25353.91668980 -.00000598 00000+0 00000+0 0 9994 2 40484 69.3388 351.4516 8498321 163.4258 13.5386 0.28413668 1306 MMS 4 1 40485U 15011D 25353.91668980 -.00000598 00000+0 00000+0 0 9995 2 40485 69.3377 351.4446 8499448 163.4120 13.5786 0.28416632 1304 ASTROSAT 1 40930U 15052A 25353.10999334 .00001649 00000+0 12055-3 0 9990 2 40930 5.9975 11.1472 0008267 340.7527 19.2289 14.82033435553063 DAMPE 1 41173U 15078A 25353.89750515 .00001066 00000+0 39101-4 0 9995 2 41173 97.4540 353.5723 0012264 0.8613 359.2647 15.30178623557120 PISAT 1 41784U 16059B 25353.77150431 .00000807 00000+0 14629-3 0 9990 2 41784 97.8156 357.0204 0030529 60.1782 300.2453 14.68511592493405 HXMT (HUIYAN) 1 42758U 17034A 25353.77354297 .00004377 00000+0 23126-3 0 9990 2 42758 43.0141 100.5935 0031095 89.6053 270.8357 15.16310448470403 FLYING LAPTOP 1 42831U 17042G 25353.87344566 .00003138 00000+0 25665-3 0 9994 2 42831 97.4246 152.1679 0014595 25.9120 334.2832 14.99957399459565 ZHANGHENG 1-01 (CSES-1) 1 43194U 18015C 25353.84497171 .00007779 00000+0 35195-3 0 9990 2 43194 97.6654 151.1464 0018405 180.6352 179.4863 15.21047410437383 SALSAT 1 46495U 20068K 25353.48061531 .00006196 00000+0 24069-3 0 9995 2 46495 97.8779 341.1169 0009485 202.4725 157.6098 15.26432785287916 IXPE 1 49954U 21121A 25353.83335647 .00008510 00000+0 47921-3 0 9994 2 49954 0.2280 232.2499 0007184 248.8402 269.5171 15.08052573 5815